Greenville, MS

11:44 PM CST on November 24, 2017 (GMT -0600)
Mid Delta Regional

Weather History for KGLH - August, 2012

Change the Weather History Date:

Friday, August 17, 2012

  Actual Average Record
Temperature  
Mean Temperature 83 °F 82 °F  
Max Temperature 93 °F 92 °F 103 °F (1952)
Min Temperature 72 °F 71 °F 55 °F (2004)
Degree Days  
Heating Degree Days 0 0  
Month to date heating degree days 0 0  
Since 1 June heating degree days 0 0  
Since 1 July heating degree days 0 0  
Cooling Degree Days 18 17  
Month to date cooling degree days 316 289  
Year to date cooling degree days 1836 1558  
Since 1 June cooling degree days 1311 1236  
Growing Degree Days 33 (Base 50)    
Moisture  
Dew Point 71 °F    
Average Humidity 64    
Maximum Humidity 87    
Minimum Humidity 41    
Precipitation  
Precipitation 0.04 in 0.06 in 1.19 in (1947)
Month to date precipitation 0.49 1.09  
Year to date precipitation 22.81 33.19  
Sea Level Pressure  
Sea Level Pressure 29.96 in    
Wind  
Wind Speed 5 mph (NNW)    
Max Wind Speed 18 mph    
Max Gust Speed 24 mph    
Visibility 10 miles    
Events Rain , Thunderstorm    
T = Trace of Precipitation, MM = Missing Value Source: NWS Daily Summary

Daily Weather History Graph

Daily Weather History Graph

Search for Another Location

Airport or City:

Trip Planner

Search our weather history database for the weather conditions in past years. The results will help you decide how hot, cold, wet, or windy it might be!

Date:

Astronomy

Aug. 17, 2012 Rise Set
Actual Time 6:28 AM CDT 7:47 PM CDT
Civil Twilight 6:01 AM CDT 8:13 PM CDT
Nautical Twilight 5:30 AM CDT 8:44 PM CDT
Astronomical Twilight 4:58 AM CDT 9:16 PM CDT
Moon 6:27 AM CDT (8/17) 7:35 PM CDT (8/17)
Length of Visible Light 14h 11m
Length of Day
13h 19m
New Moon, 0% of the Moon is Illuminated
Aug 17
New Moon
Aug 24
First Quarter
Aug 31
Full
Sep 8
Last Quarter
Sep 15
New

Hourly Weather History & Observations

Time (CDT) Temp. Heat Index Dew Point Humidity Pressure Visibility Wind Dir Wind Speed Gust Speed Precip Events Conditions
12:53 AM 80.1 °F 83.8 °F 72.0 °F 76% 29.96 in 10.0 mi SW 8.1 mph - N/A   Clear
1:53 AM 82.9 °F 87.5 °F 71.1 °F 67% 29.96 in 10.0 mi SW 10.4 mph - N/A   Overcast
2:06 AM 82.4 °F 87.2 °F 71.6 °F 70% 29.95 in 10.0 mi WSW 10.4 mph - N/A Thunderstorm Overcast
2:53 AM 78.1 °F - 72.0 °F 81% 29.97 in 10.0 mi WNW 8.1 mph - 0.04 in Thunderstorm Partly Cloudy
3:05 AM 78.8 °F - 71.6 °F 78% 29.95 in 10.0 mi NNW 10.4 mph 18.4 mph N/A   Clear
3:53 AM 75.0 °F - 70.0 °F 84% 29.98 in 10.0 mi NNW 4.6 mph - N/A   Clear
4:53 AM 73.9 °F - 69.1 °F 85% 29.95 in 10.0 mi East 3.5 mph - N/A   Clear
5:53 AM 73.0 °F - 70.0 °F 90% 29.95 in 10.0 mi South 3.5 mph - N/A   Clear
6:53 AM 73.0 °F - 70.0 °F 90% 29.97 in 10.0 mi South 5.8 mph - N/A   Clear
7:53 AM 75.0 °F - 71.1 °F 87% 30.02 in 10.0 mi NW 6.9 mph - N/A   Mostly Cloudy
8:53 AM 77.0 °F - 71.6 °F 83% 30.01 in 10.0 mi North 9.2 mph - N/A   Clear
9:53 AM 81.0 °F 84.9 °F 71.1 °F 72% 30.03 in 10.0 mi NNW 6.9 mph - N/A   Partly Cloudy
10:53 AM 84.9 °F 90.1 °F 71.1 °F 63% 30.03 in 10.0 mi West 4.6 mph - N/A   Clear
11:53 AM 87.1 °F 91.3 °F 69.1 °F 55% 30.01 in 10.0 mi Calm Calm - N/A   Partly Cloudy
12:53 PM 88.0 °F 91.4 °F 68.0 °F 51% 29.97 in 10.0 mi Calm Calm - N/A   Clear
1:53 PM 91.0 °F 95.6 °F 69.1 °F 48% 29.96 in 10.0 mi Variable 3.5 mph - N/A   Clear
2:53 PM 91.9 °F 95.9 °F 68.0 °F 45% 29.93 in 10.0 mi Calm Calm - N/A   Clear
3:53 PM 91.9 °F 95.4 °F 66.9 °F 44% 29.91 in 10.0 mi NNW 9.2 mph - N/A   Clear
4:53 PM 93.0 °F 96.4 °F 66.9 °F 42% 29.91 in 10.0 mi North 6.9 mph - N/A   Clear
5:53 PM 90.0 °F 94.5 °F 69.1 °F 50% 29.90 in 10.0 mi NNE 5.8 mph - N/A   Clear
6:53 PM 86.0 °F 90.1 °F 69.1 °F 57% 29.90 in 10.0 mi NE 6.9 mph - N/A   Mostly Cloudy
7:53 PM 82.9 °F 88.0 °F 72.0 °F 69% 29.92 in 10.0 mi East 8.1 mph - N/A   Clear
8:53 PM 81.0 °F 85.2 °F 72.0 °F 74% 29.95 in 10.0 mi ESE 5.8 mph - N/A   Clear
9:53 PM 79.0 °F - 72.0 °F 79% 29.95 in 10.0 mi SE 5.8 mph - N/A   Clear
10:43 PM 78.8 °F - 71.6 °F 78% 29.94 in 10.0 mi Calm Calm - N/A Thunderstorm Clear
10:53 PM 77.0 °F - 72.0 °F 84% 29.96 in 10.0 mi Calm Calm - N/A Thunderstorm Scattered Clouds
11:22 PM 78.8 °F - 73.4 °F 83% 29.92 in 10.0 mi NNW 3.5 mph - 0.00 in Rain Light Rain
11:53 PM 77.0 °F - 73.0 °F 88% 29.92 in 10.0 mi Calm Calm - 0.00 in   Scattered Clouds